When you browse on this site, cookies collect data to enhance your experience and personalize the content and advertising you see.
Visit our Privacy Policy to learn more. By continuing to use the site, you agree to this use of cookies and data.
  • In Portugal
  • List of Countries
  • For 7 days
  • Water Temperature
  • Weather Map
  • Weather Widgets
  • user-avatar
    Login

    Hourly Weather Canberra

    Today, 23 August, Friday

    Time Temperature Precipitation Wind Pressure Humidity
    00:00 +2°C° 0 mm 1 mps 713 mmHg 78%
    01:00 +1°C° 0 mm 1 mps 713 mmHg 82%
    02:00 +1°C° 0 mm 1 mps 713 mmHg 82%
    03:00 0°C° 0 mm 1 mps 713 mmHg 82%
    04:00 0°C° 0 mm 1 mps 713 mmHg 83%
    05:00 0°C° 0 mm 1 mps 713 mmHg 80%
    06:00 -1°C° 0 mm 0 mps 714 mmHg 77%
    07:00 -1°C° 0 mm 0 mps 714 mmHg 74%
    08:00 +3°C° 0 mm 1 mps 714 mmHg 63%
    09:00 +7°C° 0 mm 1 mps 714 mmHg 51%
    10:00 +10°C° 0 mm 1 mps 715 mmHg 42%
    11:00 +12°C° 0 mm 2 mps 715 mmHg 42%
    12:00 +12°C° 0 mm 3 mps 714 mmHg 41%
    13:00 +13°C° 0 mm 3 mps 713 mmHg 41%
    14:00 +13°C° 0 mm 4 mps 713 mmHg 45%
    15:00 +12°C° 0 mm 4 mps 713 mmHg 49%
    16:00 +12°C° 0 mm 3 mps 713 mmHg 53%
    17:00 +10°C° 0 mm 3 mps 713 mmHg 63%
    18:00 +7°C° 0 mm 3 mps 713 mmHg 72%
    19:00 +5°C° 0 mm 2 mps 713 mmHg 82%
    20:00 +4°C° 0 mm 2 mps 713 mmHg 82%
    21:00 +4°C° 0 mm 2 mps 713 mmHg 82%
    22:00 +4°C° 0 mm 1 mps 713 mmHg 82%
    23:00 +4°C° 0 mm 1 mps 712 mmHg 83%

    Tomorrow, 24 August, Saturday

    Time Temperature Precipitation Wind Pressure Humidity
    00:00 +3°C° 0 mm 1 mps 712 mmHg 83%
    01:00 +2°C° 0 mm 2 mps 711 mmHg 84%
    02:00 +2°C° 0 mm 2 mps 711 mmHg 84%
    03:00 +2°C° 0 mm 2 mps 711 mmHg 85%
    04:00 +1°C° 0 mm 2 mps 710 mmHg 86%
    05:00 +1°C° 0 mm 2 mps 710 mmHg 87%
    06:00 +1°C° 0 mm 2 mps 710 mmHg 87%
    07:00 +1°C° 0 mm 2 mps 711 mmHg 88%
    08:00 +4°C° 0 mm 3 mps 710 mmHg 76%
    09:00 +7°C° 0 mm 4 mps 710 mmHg 65%
    10:00 +10°C° 0 mm 5 mps 710 mmHg 53%
    11:00 +11°C° 0 mm 6 mps 710 mmHg 50%
    12:00 +13°C° 0 mm 6 mps 709 mmHg 48%
    13:00 +14°C° 0 mm 7 mps 709 mmHg 45%
    14:00 +14°C° 0 mm 7 mps 709 mmHg 49%
    15:00 +12°C° 0 mm 7 mps 708 mmHg 52%
    16:00 +13°C° 0 mm 6 mps 708 mmHg 56%
    17:00 +10°C° 0 mm 5 mps 708 mmHg 66%
    18:00 +8°C° 0 mm 4 mps 708 mmHg 75%
    19:00 +7°C° 0 mm 3 mps 708 mmHg 85%
    20:00 +7°C° 0 mm 3 mps 708 mmHg 85%
    21:00 +7°C° 0 mm 3 mps 708 mmHg 85%
    22:00 +5°C° 0 mm 3 mps 708 mmHg 86%
    23:00 +5°C° 0 mm 3 mps 708 mmHg 85%

    Day after tomorrow, 25 August, Sunday

    Time Temperature Precipitation Wind Pressure Humidity
    00:00 +5°C° 0 mm 3 mps 707 mmHg 84%
    01:00 +4°C° 0 mm 3 mps 707 mmHg 83%
    02:00 +5°C° 0 mm 2 mps 707 mmHg 83%
    03:00 +5°C° 0 mm 2 mps 707 mmHg 83%
    04:00 +4°C° 0 mm 2 mps 707 mmHg 82%
    05:00 +4°C° 0 mm 2 mps 707 mmHg 83%
    06:00 +4°C° 0 mm 1 mps 708 mmHg 84%
    07:00 +4°C° 0 mm 1 mps 708 mmHg 85%
    08:00 +7°C° 0 mm 1 mps 709 mmHg 76%
    09:00 +9°C° 0 mm 2 mps 709 mmHg 66%
    10:00 +12°C° 0 mm 2 mps 710 mmHg 57%
    11:00 +12°C° 0 mm 3 mps 709 mmHg 54%
    12:00 +13°C° 0 mm 4 mps 709 mmHg 51%
    13:00 +14°C° 0 mm 5 mps 709 mmHg 49%
    14:00 +14°C° 0 mm 5 mps 709 mmHg 49%
    15:00 +13°C° 0 mm 4 mps 709 mmHg 49%
    16:00 +12°C° 0 mm 4 mps 709 mmHg 49%
    17:00 +10°C° 0 mm 3 mps 710 mmHg 61%
    18:00 +7°C° 0 mm 2 mps 710 mmHg 73%
    19:00 +5°C° 0 mm 1 mps 710 mmHg 85%
    20:00 +5°C° 0 mm 1 mps 711 mmHg 88%
    21:00 +4°C° 0 mm 1 mps 711 mmHg 90%
    22:00 +4°C° 0 mm 1 mps 711 mmHg 93%
    23:00 +4°C° 0 mm 1 mps 711 mmHg 93%

    26 August, Monday

    Time Temperature Precipitation Wind Pressure Humidity
    00:00 +4°C° 0 mm 1 mps 712 mmHg 93%
    01:00 +5°C° 0 mm 1 mps 712 mmHg 93%
    02:00 +5°C° 0 mm 1 mps 712 mmHg 92%
    03:00 +5°C° 0 mm 1 mps 712 mmHg 92%
    04:00 +5°C° 0 mm 1 mps 711 mmHg 91%
    05:00 +5°C° 0 mm 1 mps 712 mmHg 90%
    06:00 +5°C° 0 mm 1 mps 712 mmHg 88%
    07:00 +5°C° 0 mm 1 mps 713 mmHg 87%
    08:00 +7°C° 0 mm 1 mps 713 mmHg 81%
    09:00 +8°C° 0 mm 1 mps 713 mmHg 76%
    10:00 +8°C° 0 mm 2 mps 713 mmHg 70%
    11:00 +10°C° 0 mm 1 mps 713 mmHg 68%
    12:00 +11°C° 0 mm 1 mps 713 mmHg 66%
    13:00 +12°C° 0 mm 1 mps 712 mmHg 64%
    14:00 +10°C° 0.1 mm 2 mps 712 mmHg 66%
    15:00 +10°C° 0.1 mm 2 mps 712 mmHg 68%
    16:00 +10°C° 0.1 mm 2 mps 711 mmHg 69%
    17:00 +8°C° 0 mm 2 mps 712 mmHg 77%
    18:00 +7°C° 0 mm 2 mps 712 mmHg 85%
    19:00 +5°C° 0 mm 2 mps 713 mmHg 93%
    20:00 +5°C° 0 mm 2 mps 713 mmHg 93%
    21:00 +5°C° 0 mm 2 mps 713 mmHg 93%
    22:00 +5°C° 0 mm 2 mps 714 mmHg 93%
    23:00 +5°C° 0 mm 2 mps 714 mmHg 92%

    27 August, Tuesday

    Time Temperature Precipitation Wind Pressure Humidity
    00:00 +5°C° 0 mm 2 mps 714 mmHg 91%
    01:00 +6°C° 0 mm 2 mps 714 mmHg 90%
    02:00 +6°C° 0.1 mm 2 mps 714 mmHg 91%
    03:00 +6°C° 0.1 mm 2 mps 713 mmHg 92%
    04:00 +5°C° 0.1 mm 2 mps 713 mmHg 93%
    05:00 +5°C° 0.1 mm 2 mps 713 mmHg 94%
    06:00 +5°C° 0.1 mm 2 mps 714 mmHg 94%
    07:00 +5°C° 0.1 mm 2 mps 714 mmHg 95%
    08:00 +6°C° 0.2 mm 2 mps 714 mmHg 93%
    09:00 +6°C° 0.2 mm 2 mps 714 mmHg 91%
    10:00 +7°C° 0.2 mm 2 mps 714 mmHg 90%
    11:00 +8°C° 0.1 mm 1 mps 714 mmHg 89%
    12:00 +9°C° 0.1 mm 1 mps 713 mmHg 89%
    13:00 +9°C° 0.1 mm 1 mps 713 mmHg 88%
    14:00 +9°C° 0.1 mm 1 mps 713 mmHg 89%
    15:00 +9°C° 0.1 mm 1 mps 712 mmHg 90%
    16:00 +9°C° 0.1 mm 1 mps 712 mmHg 90%
    17:00 +9°C° 0.1 mm 1 mps 713 mmHg 92%
    18:00 +8°C° 0.1 mm 1 mps 713 mmHg 93%
    19:00 +7°C° 0.1 mm 2 mps 714 mmHg 95%
    20:00 +8°C° 0.3 mm 1 mps 714 mmHg 95%
    21:00 +8°C° 0.3 mm 1 mps 714 mmHg 96%
    22:00 +8°C° 0.3 mm 1 mps 714 mmHg 97%
    23:00 +8°C° 0.4 mm 1 mps 714 mmHg 97%

    28 August, Wednesday

    Time Temperature Precipitation Wind Pressure Humidity
    00:00 +7°C° 0.4 mm 1 mps 714 mmHg 97%
    01:00 +6°C° 0.4 mm 0 mps 714 mmHg 97%
    02:00 +6°C° 0.5 mm 0 mps 713 mmHg 97%
    03:00 +6°C° 0.5 mm 0 mps 713 mmHg 97%
    04:00 +6°C° 0.5 mm 0 mps 713 mmHg 97%
    05:00 +6°C° 0.1 mm 0 mps 713 mmHg 97%
    06:00 +6°C° 0.1 mm 0 mps 713 mmHg 97%
    07:00 +6°C° 0.1 mm 0 mps 713 mmHg 97%
    08:00 +7°C° 0.1 mm 0 mps 713 mmHg 93%
    09:00 +9°C° 0.1 mm 1 mps 713 mmHg 89%
    10:00 +10°C° 0.1 mm 1 mps 712 mmHg 85%
    11:00 +12°C° 0 mm 2 mps 712 mmHg 76%
    12:00 +12°C° 0 mm 3 mps 711 mmHg 68%
    13:00 +13°C° 0 mm 3 mps 711 mmHg 60%
    14:00 +13°C° 0.1 mm 4 mps 710 mmHg 59%
    15:00 +13°C° 0.1 mm 4 mps 710 mmHg 59%
    16:00 +13°C° 0.1 mm 4 mps 709 mmHg 58%
    17:00 +11°C° 0 mm 3 mps 710 mmHg 68%
    18:00 +9°C° 0 mm 3 mps 710 mmHg 78%
    19:00 +6°C° 0 mm 2 mps 710 mmHg 88%
    20:00 +6°C° 0 mm 2 mps 710 mmHg 89%
    21:00 +5°C° 0 mm 2 mps 710 mmHg 89%
    22:00 +4°C° 0 mm 2 mps 710 mmHg 89%
    23:00 +4°C° 0 mm 2 mps 709 mmHg 90%
    Show more